Location: Arbon
(43.0005°N, 0.7472°E)
Time: 01:11:03
(UTC+00:00)

S-56A Canister/Altair - Pass Details

Date: 10 December 2020
Orbit: 633 x 2499 km, 38.9° (Epoch: 19 January)

Event Time Altitude Azimuth Distance (km) Brightness Sun altitude
Rises 17:14:42 0° 255° (WSW) 6,175 14.4 -9.4°
Reaches altitude 10° 17:18:50 10° 253° (WSW) 5,136 13.3 -10.1°
Maximum altitude 17:33:30 72° 174° (S) 2,218 9.8 -12.6°
Enters shadow 17:43:20 14° 93° (E) 3,640 10.4 -14.3°
